Wind_Speed
39 40 41 41 40 40 41 42 42 42 41 42 42 42 42 43 44 44 43 43 41 39 38 38 39 40 39 36 35 35 33 31 28 27 25 24 24 24 24 23 22 21 21
40 41 43 44 44 43 43 44 44 44 44 45 45 45 45 45 45 45 46 46 44 41 39 39 40 40 39 37 35 35 35 33 31 29 27 27 28 26 26 24 22 22 23
43 44 44 45 46 46 46 46 46 46 46 46 46 45 45 45 46 47 48 48 46 43 42 41 42 41 39 37 36 36 36 36 33 31 30 29 30 28 26 24 23 23 24
46 45 44 46 47 48 48 48 48 47 46 45 45 45 46 47 48 49 50 49 48 46 45 45 44 42 40 38 36 36 37 38 36 33 31 30 30 29 27 25 24 24 24
45 44 43 44 46 47 48 47 47 46 46 46 46 47 48 49 50 51 51 51 50 49 47 46 45 43 41 39 39 38 38 39 38 34 30 29 30 30 28 26 26 25 24
40 42 42 42 43 45 45 45 45 45 46 46 47 48 50 51 52 52 52 51 51 49 47 46 45 43 42 41 41 40 39 39 39 35 31 29 29 29 28 26 27 28 28
35 36 39 41 42 43 44 45 45 46 47 48 49 50 52 53 53 53 52 51 49 48 47 46 45 44 41 41 41 39 39 40 40 37 33 30 29 29 28 27 27 27 29
47 44 43 43 44 44 46 47 48 49 50 51 52 52 53 54 54 53 51 49 48 47 46 46 45 44 42 40 38 36 37 40 40 38 33 31 30 29 28 27 26 26 28
52 52 51 50 49 49 49 50 52 53 53 54 54 54 53 53 51 50 48 48 47 45 43 41 41 40 41 40 37 35 37 40 40 37 34 31 29 27 26 26 27 27 26
53 52 52 52 51 50 50 51 52 53 52 52 50 49 48 46 45 44 44 44 42 40 37 35 36 38 38 38 38 37 39 40 38 36 33 30 27 25 25 26 27 26 25
45 44 44 44 44 44 44 45 46 45 45 44 43 42 41 39 38 38 38 37 36 34 32 31 33 36 38 39 40 40 40 38 36 32 27 25 24 24 25 25 25 25 25
40 39 37 37 38 39 40 40 40 40 39 39 39 38 36 34 34 34 33 32 30 28 28 27 27 26 27 28 31 33 33 32 29 26 24 23 22 23 23 23 23 24 25
39 39 37 37 37 38 39 38 37 36 36 35 35 36 35 34 32 32 32 31 29 27 27 25 23 22 21 20 20 20 21 21 21 21 21 22 23 24 24 24 24 25 25
36 37 36 36 37 37 36 35 34 34 34 34 34 35 35 35 34 34 33 33 33 32 31 29 26 23 21 21 20 20 20 21 22 23 25 26 27 27 27 26 26 27 26
33 34 35 35 35 35 35 34 32 32 32 33 33 33 34 35 36 36 36 36 37 37 37 36 34 31 29 27 26 25 24 25 25 26 27 27 28 28 28 28 28 28 28
31 31 31 32 34 35 35 33 32 32 32 33 33 33 34 34 35 36 37 37 38 39 40 40 40 40 38 37 35 33 32 32 32 32 32 31 31 31 31 30 29 29 29
27 26 27 28 29 31 33 32 31 30 30 30 31 33 34 34 35 35 36 37 38 39 41 42 43 43 44 44 43 42 41 40 39 39 38 37 36 35 33 32 31 31 31
21 21 22 23 24 26 28 29 29 30 30 30 31 31 32 33 34 35 36 37 39 40 41 43 44 45 46 46 47 46 46 44 44 43 43 42 40 37 35 33 32 32 32
18 18 18 18 20 23 25 27 29 29 28 28 29 29 30 31 32 33 34 35 37 38 39 41 43 44 44 45 45 45 45 44 43 43 43 42 41 38 36 35 34 34 34
14 14 15 15 16 18 20 22 24 25 25 25 25 26 27 29 30 32 33 35 36 36 37 37 38 38 39 39 39 39 39 39 39 38 38 38 38 38 37 37 36 36 36
12 12 13 14 15 16 17 19 21 22 23 23 23 24 26 28 29 30 31 32 32 31 30 30 31 31 31 31 31 31 31 32 32 32 33 35 37 38 38 38 39 39 38
13 13 14 15 16 17 18 20 21 21 22 22 22 24 25 26 26 27 27 25 24 23 23 23 24 24 23 23 24 24 24 25 26 26 28 30 31 33 36 37 39 40 40
10 11 12 13 14 15 16 17 19 20 20 20 20 21 21 22 22 22 22 22 22 22 21 22 22 23 23 23 24 24 24 24 24 24 24 25 26 28 30 32 34 37 38
6 7 7 8 10 11 12 14 15 16 17 17 18 18 19 19 19 20 20 21 22 23 24 25 26 27 27 27 28 28 28 28 28 27 27 27 27 26 26 27 28 31 33
5 5 5 6 6 7 8 10 11 13 14 15 17 18 18 18 19 19 19 19 20 21 23 25 27 28 29 30 31 32 32 33 33 32 32 32 31 30 29 29 29 28 28
6 6 6 6 7 7 7 8 9 10 12 14 15 16 17 18 18 19 20 21 22 23 24 26 28 29 30 32 33 34 36 36 37 37 37 37 37 36 36 35 34 33 33
Wind_Direction
252 256 261 264 266 268 270 272 275 277 278 279 281 283 285 287 290 293 296 299 300 300 301 301 301 301 301 295 283 273 268 267 269 272 276 280 284 286 284 281 281 281 284
258 258 260 263 266 267 269 271 273 275 276 277 278 280 283 284 285 288 292 295 296 297 297 297 297 297 295 292 284 275 267 264 265 268 273 279 283 284 281 276 276 279 286
258 259 260 262 265 267 269 271 273 274 274 274 276 278 280 280 282 285 288 290 292 293 294 294 294 293 290 287 283 277 268 263 263 265 270 275 281 280 276 272 272 278 285
259 259 259 261 264 266 268 270 271 273 273 274 275 277 279 280 281 283 285 287 288 289 289 289 289 287 284 281 279 276 271 266 262 263 268 275 277 276 273 271 270 274 282
259 259 258 258 259 262 264 266 268 269 271 273 275 277 279 280 281 282 283 285 286 287 286 285 283 280 278 275 275 274 270 266 262 261 266 272 275 274 271 273 278 281 284
258 259 259 259 259 260 262 263 265 267 269 272 274 277 279 281 283 284 285 285 285 285 283 280 277 274 272 270 271 271 268 265 261 259 264 269 273 270 269 274 282 288 292
262 262 261 259 259 260 262 263 265 267 270 272 275 277 279 282 284 285 286 285 284 282 279 275 271 268 266 265 267 268 264 262 259 259 262 266 268 268 268 272 280 286 290
265 265 263 262 261 262 263 264 266 268 270 273 275 277 279 281 282 283 284 283 282 280 278 273 268 263 261 262 264 263 262 260 257 257 260 263 263 264 266 272 278 284 288
265 265 264 263 262 263 264 265 266 268 270 272 274 276 277 279 279 280 280 281 281 280 278 272 266 261 259 260 260 260 259 257 255 255 258 258 258 261 266 272 277 281 283
265 268 267 265 264 265 266 267 268 269 270 271 273 275 276 276 275 276 277 280 281 280 278 272 265 260 257 256 255 256 256 254 253 253 254 254 256 261 268 273 276 278 280
266 270 269 266 265 265 267 269 269 270 270 271 273 275 276 275 274 274 277 280 280 278 275 268 263 258 253 252 251 253 252 249 251 251 252 256 260 264 267 270 272 275 278
268 270 269 267 266 266 268 270 271 271 271 272 272 273 273 274 274 274 276 280 281 280 278 273 271 267 262 256 254 254 253 253 253 255 258 263 265 267 268 269 270 273 277
270 268 267 265 265 266 267 270 271 272 270 268 268 268 269 270 271 273 274 278 282 287 288 292 291 289 288 285 280 275 272 270 268 267 267 267 268 269 270 270 270 273 275
270 267 264 262 263 263 265 267 269 269 267 265 264 265 266 268 269 271 274 278 280 283 287 290 291 292 292 291 288 284 281 278 275 273 272 271 272 272 272 270 270 272 273
272 268 263 260 260 261 262 263 265 265 264 262 261 263 266 269 270 272 274 276 279 280 281 284 286 287 288 287 287 286 283 281 278 276 276 275 274 274 272 271 270 270 270
270 268 266 263 261 259 259 260 261 261 261 260 259 261 266 269 272 273 275 276 277 277 277 279 281 282 283 284 283 283 283 283 283 282 281 281 279 277 275 273 270 269 267
267 269 269 268 263 258 256 256 257 257 259 261 262 264 267 271 273 275 276 277 278 277 277 277 278 280 281 282 283 283 283 283 283 283 283 282 282 281 279 275 272 269 265
261 262 266 267 264 258 254 252 254 258 260 263 265 268 270 272 275 277 279 280 280 280 279 278 278 278 279 280 281 282 282 282 281 282 282 282 282 282 280 276 273 269 264
256 256 261 263 260 256 253 253 256 258 261 264 267 269 272 274 276 278 279 279 280 280 280 279 278 278 279 280 281 282 282 281 281 281 282 281 280 279 276 272 270 267 264
255 255 257 259 259 256 254 254 256 257 261 266 270 273 275 278 279 281 281 280 279 279 278 279 279 280 280 281 281 281 281 281 280 279 277 275 273 271 268 267 265 263 262
261 260 261 261 261 261 260 258 259 262 266 270 274 278 282 284 284 284 283 282 280 280 279 279 279 280 281 281 282 283 282 281 280 277 273 270 268 267 265 264 262 261 260
276 274 273 271 268 266 265 264 264 266 269 273 278 282 284 284 283 282 281 280 279 278 278 278 280 282 284 285 286 286 286 285 283 281 277 274 271 269 267 265 264 262 261
285 282 278 275 272 270 268 269 271 272 274 277 280 283 284 284 282 280 278 277 276 276 278 280 282 283 284 284 284 284 285 285 285 283 282 280 278 276 274 270 266 264 262
309 305 300 293 287 284 282 281 280 279 278 277 280 284 287 288 286 283 281 279 280 280 280 282 283 284 284 283 281 280 280 280 280 280 279 280 279 279 279 279 276 272 268
338 336 331 325 317 309 303 299 292 287 284 282 283 286 288 289 288 287 286 285 285 284 283 283 284 283 281 281 280 279 279 279 279 278 277 277 276 276 278 278 278 277 274
318 323 326 329 330 328 321 313 306 299 293 289 288 288 289 289 289 290 291 291 291 290 288 287 287 286 284 282 281 279 278 279 279 279 278 277 275 275 274 274 274 274 273
Height
5874 5880 5881 5882 5883 5885 5885 5885 5885 5885 5885 5885 5884 5883 5883 5883 5882 5882 5882 5882 5882 5882 5881 5879 5876 5873 5871 5870 5869 5869 5870 5872 5872 5871 5871 5871 5870 5870 5869 5867 5866 5866 5865
5868 5873 5875 5875 5875 5877 5877 5877 5878 5878 5877 5877 5877 5877 5876 5876 5876 5876 5875 5874 5874 5874 5873 5871 5869 5866 5864 5862 5862 5862 5862 5863 5864 5864 5864 5864 5864 5863 5862 5861 5861 5860 5860
5863 5864 5866 5866 5867 5867 5868 5868 5869 5869 5870 5870 5869 5869 5869 5869 5868 5868 5868 5867 5866 5866 5864 5863 5861 5858 5857 5855 5854 5854 5854 5855 5855 5856 5857 5857 5856 5855 5855 5855 5855 5855 5854
5854 5856 5858 5858 5858 5858 5859 5859 5860 5860 5861 5861 5861 5861 5861 5861 5860 5860 5859 5858 5857 5856 5856 5854 5852 5850 5848 5847 5846 5846 5847 5847 5847 5848 5848 5849 5849 5848 5848 5848 5849 5849 5849
5845 5846 5848 5849 5849 5849 5850 5850 5851 5851 5852 5852 5852 5852 5851 5851 5851 5850 5850 5849 5847 5846 5845 5843 5842 5840 5839 5838 5837 5837 5838 5839 5840 5840 5840 5841 5841 5841 5841 5841 5842 5842 5843
5835 5836 5838 5839 5840 5840 5841 5842 5842 5843 5843 5843 5843 5843 5842 5841 5840 5839 5838 5837 5836 5834 5833 5832 5831 5830 5829 5828 5828 5827 5828 5830 5831 5832 5832 5833 5834 5834 5834 5834 5834 5834 5834
5825 5828 5829 5831 5831 5832 5833 5833 5834 5834 5834 5834 5834 5833 5832 5831 5830 5828 5826 5824 5823 5821 5820 5819 5819 5818 5818 5817 5818 5818 5819 5821 5822 5824 5824 5824 5825 5826 5827 5827 5827 5827 5827
5816 5819 5820 5821 5822 5823 5824 5824 5825 5825 5825 5824 5824 5824 5823 5821 5819 5817 5815 5812 5810 5809 5807 5806 5806 5806 5807 5807 5808 5809 5810 5812 5814 5815 5815 5816 5817 5818 5819 5820 5820 5820 5820
5803 5806 5808 5809 5811 5812 5813 5814 5814 5814 5814 5814 5814 5813 5812 5810 5808 5806 5804 5802 5800 5798 5796 5795 5795 5796 5797 5798 5799 5800 5801 5803 5805 5806 5807 5807 5808 5809 5811 5812 5812 5813 5813
5791 5793 5794 5796 5798 5800 5801 5802 5802 5803 5803 5802 5802 5801 5800 5799 5798 5796 5795 5792 5790 5788 5787 5786 5786 5786 5786 5788 5789 5791 5793 5795 5796 5797 5798 5798 5800 5802 5803 5804 5804 5804 5805
5780 5781 5782 5784 5786 5788 5789 5789 5790 5791 5791 5792 5791 5790 5789 5789 5788 5787 5786 5784 5782 5780 5779 5778 5778 5777 5778 5779 5781 5783 5785 5786 5787 5787 5788 5789 5791 5793 5795 5796 5797 5797 5797
5771 5772 5773 5774 5775 5777 5778 5778 5779 5781 5781 5782 5782 5781 5780 5780 5780 5779 5778 5777 5775 5774 5773 5772 5771 5769 5769 5770 5772 5774 5775 5776 5777 5778 5781 5782 5784 5786 5788 5789 5790 5790 5790
5762 5763 5764 5765 5766 5767 5768 5769 5770 5771 5772 5773 5773 5772 5772 5772 5772 5771 5770 5769 5769 5768 5767 5766 5765 5765 5764 5764 5765 5767 5768 5769 5771 5772 5774 5776 5778 5779 5781 5782 5783 5783 5783
5752 5753 5755 5756 5757 5758 5759 5760 5761 5762 5764 5764 5764 5764 5764 5764 5764 5764 5763 5762 5762 5761 5760 5760 5760 5760 5761 5760 5761 5762 5763 5764 5765 5766 5768 5769 5771 5772 5773 5774 5775 5775 5776
5743 5744 5746 5747 5748 5749 5751 5752 5753 5755 5756 5756 5757 5757 5757 5756 5756 5756 5756 5756 5755 5753 5753 5753 5753 5753 5754 5754 5755 5756 5757 5758 5759 5760 5761 5762 5763 5764 5765 5766 5767 5767 5768
5735 5736 5738 5739 5740 5741 5743 5744 5746 5747 5748 5749 5749 5750 5749 5749 5748 5748 5748 5748 5747 5746 5745 5745 5744 5744 5745 5746 5747 5748 5749 5750 5751 5752 5752 5753 5754 5755 5756 5757 5757 5758 5759
5727 5729 5730 5731 5732 5733 5735 5737 5739 5740 5741 5742 5742 5742 5742 5741 5741 5740 5740 5739 5738 5737 5737 5736 5736 5735 5735 5736 5736 5737 5738 5739 5740 5741 5742 5743 5744 5745 5746 5747 5748 5749 5750
5720 5722 5723 5724 5725 5726 5728 5730 5732 5733 5734 5734 5735 5735 5734 5734 5733 5732 5731 5730 5729 5728 5727 5727 5727 5727 5727 5726 5726 5726 5727 5728 5729 5730 5731 5732 5733 5734 5735 5736 5738 5739 5740
5715 5716 5717 5718 5719 5720 5722 5723 5725 5726 5726 5727 5727 5727 5727 5726 5725 5724 5723 5722 5721 5720 5719 5718 5718 5718 5718 5718 5718 5718 5718 5718 5718 5719 5720 5721 5722 5723 5724 5726 5727 5728 5730
5711 5711 5712 5713 5714 5715 5716 5717 5718 5719 5719 5720 5720 5720 5719 5718 5718 5717 5716 5714 5713 5712 5711 5710 5710 5710 5710 5709 5708 5708 5708 5708 5709 5709 5710 5710 5711 5712 5714 5715 5716 5718 5719
5708 5708 5708 5709 5709 5710 5711 5712 5712 5713 5713 5713 5713 5713 5712 5712 5710 5709 5708 5706 5705 5704 5703 5703 5702 5702 5702 5701 5701 5700 5700 5699 5699 5700 5700 5700 5700 5701 5703 5704 5705 5706 5708
5704 5704 5705 5705 5705 5706 5706 5706 5707 5707 5707 5707 5707 5707 5706 5705 5704 5702 5701 5700 5699 5698 5697 5697 5696 5696 5696 5695 5694 5693 5692 5692 5691 5691 5691 5691 5691 5691 5692 5693 5694 5696 5697
5702 5701 5701 5701 5701 5702 5702 5702 5702 5702 5702 5702 5702 5701 5701 5699 5698 5697 5696 5695 5694 5693 5693 5692 5692 5691 5690 5689 5688 5687 5686 5685 5684 5684 5683 5683 5682 5682 5682 5682 5683 5684 5686
5700 5699 5698 5698 5698 5697 5697 5697 5697 5697 5697 5697 5697 5696 5695 5694 5693 5692 5691 5690 5690 5689 5688 5687 5686 5685 5684 5683 5682 5681 5680 5678 5677 5676 5676 5675 5674 5674 5674 5674 5673 5674 5674
5699 5698 5697 5696 5695 5694 5694 5694 5693 5693 5693 5693 5692 5692 5691 5690 5689 5688 5687 5686 5685 5683 5682 5681 5680 5678 5677 5676 5674 5673 5671 5670 5668 5667 5667 5666 5666 5665 5665 5665 5665 5665 5665
5698 5697 5696 5695 5693 5692 5692 5691 5691 5690 5690 5689 5688 5688 5687 5686 5685 5684 5682 5681 5680 5678 5676 5675 5673 5671 5669 5667 5665 5664 5662 5660 5658 5657 5656 5656 5655 5655 5655 5655 5655 5655 5655